Date String (YYYY-MM-DD hh:mm:ss) UTC,Instrument flags,Ambient pressure (hPa),Sample flow (lpm),Bypass flow (lpm),Sample temperature (°C),Ambient temperature (°C),ASC tube jacket temperature (°C),LED temperature (°C),Box temperature (°C),Sample RH (%),Span deviation,Mass concentration (μg/m³),Mass concentration (μg/m³),Mass concentration (μg/m³)
DateTimeUTC,F1_M11,P_M11,Q1_M11,Q2_M11,T1_M11,T2_M11,T3_M11,T4_M11,T5_M11,U1_M11,ZSPAN_M11,X0_M11,X2_M11,X1_M11
2023-03-12 21:00:00,,0824.3,5.00,0.00,22.3,21.6,00.0,30.9,24.1,12.6,0000.0,0010.19,0005.66,0005.24
2023-03-12 21:01:00,,0824.3,5.00,0.00,22.3,21.4,00.0,30.9,24.1,12.8,0000.0,0010.23,0005.72,0005.30
2023-03-12 21:02:00,,0824.3,4.99,0.00,22.3,21.1,00.0,30.9,24.0,12.9,0000.0,0010.61,0005.76,0005.34
2023-03-12 21:03:00,,0824.4,5.00,0.00,22.3,21.0,00.0,30.9,24.0,13.0,0000.0,0010.98,0005.85,0005.39
2023-03-12 21:04:00,,0824.4,5.00,0.00,22.3,20.9,00.0,30.9,24.0,13.0,0000.0,0011.56,0005.91,0005.45
2023-03-12 21:05:00,,0824.4,4.99,0.00,22.2,20.8,00.0,30.9,24.0,12.9,0000.0,0011.64,0005.96,0005.49
2023-03-12 21:06:00,,0824.4,5.00,0.00,22.2,20.8,00.0,30.9,24.0,12.9,0000.0,0011.72,0005.99,0005.51
2023-03-12 21:07:00,,0824.4,5.00,0.00,22.2,20.7,00.0,30.9,24.0,12.7,0000.0,0011.48,0005.99,0005.50
2023-03-12 21:08:00,,0824.4,5.01,0.00,22.2,20.7,00.0,31.0,24.0,12.7,-000.6,0010.74,0005.95,0005.48
2023-03-12 21:09:00,,0824.3,4.99,0.00,22.2,20.8,00.0,31.0,24.0,12.6,-000.5,0010.54,0005.89,0005.45
2023-03-12 21:10:00,,0824.3,5.00,0.00,22.2,20.8,00.0,31.0,24.0,12.7,-000.7,0010.24,0005.83,0005.41
2023-03-12 21:11:00,,0824.3,5.01,0.00,22.2,20.9,00.0,31.0,24.0,12.8,-000.8,0010.41,0005.76,0005.36
2023-03-12 21:12:00,,0824.3,5.00,0.00,22.2,20.9,00.0,31.0,24.0,12.8,0000.0,0010.73,0005.71,0005.30
2023-03-12 21:13:00,,0824.3,4.98,0.00,22.2,20.9,00.0,31.0,24.0,12.8,0000.0,0010.28,0005.68,0005.25
2023-03-12 21:14:00,,0824.3,4.98,0.00,22.3,20.9,00.0,31.0,24.1,12.8,0000.0,0010.29,0005.60,0005.19
2023-03-12 21:15:00,,0824.4,5.00,0.00,22.3,20.9,00.0,31.0,24.1,12.7,0000.0,0010.21,0005.55,0005.14
2023-03-12 21:16:00,,0824.4,5.02,0.00,22.3,20.9,00.0,31.0,24.1,12.8,0000.0,0010.74,0005.56,0005.13
2023-03-12 21:17:00,,0824.4,4.98,0.00,22.3,20.9,00.0,31.0,24.1,12.8,0000.0,0010.90,0005.54,0005.12
2023-03-12 21:18:00,,0824.3,5.03,0.00,22.3,21.0,00.0,31.0,24.1,12.8,0000.0,0011.54,0005.56,0005.16
2023-03-12 21:19:00,,0824.3,5.00,0.00,22.3,21.0,00.0,31.0,24.1,12.8,0000.0,0011.66,0005.61,0005.19
2023-03-12 21:20:00,,0824.3,5.01,0.00,22.3,21.0,00.0,31.0,24.1,12.9,0000.0,0011.64,0005.65,0005.24
2023-03-12 21:21:00,,0824.3,5.03,0.00,22.3,21.0,00.0,31.0,24.1,12.8,0000.0,0011.66,0005.69,0005.29
2023-03-12 21:22:00,,0824.2,5.00,0.00,22.3,21.0,00.0,31.0,24.1,12.8,0000.0,0011.43,0005.72,0005.32
2023-03-12 21:23:00,,0824.2,5.00,0.00,22.3,21.0,00.0,31.0,24.2,12.9,0000.0,0011.10,0005.77,0005.37
2023-03-12 21:24:00,,0824.2,5.01,0.00,22.3,21.0,00.0,31.0,24.2,12.8,0000.0,0011.20,0005.79,0005.40
2023-03-12 21:25:00,,0824.2,5.00,0.00,22.3,21.0,00.0,31.0,24.2,12.8,0000.0,0010.78,0005.78,0005.43
2023-03-12 21:26:00,,0824.2,5.01,0.00,22.3,21.0,00.0,31.1,24.2,12.8,0000.0,0010.24,0005.77,0005.43
2023-03-12 21:27:00,,0824.2,4.98,0.00,22.3,21.0,00.0,31.1,24.2,12.9,0000.0,0009.71,0005.75,0005.42
2023-03-12 21:28:00,,0824.2,4.99,0.00,22.4,21.0,00.0,31.1,24.2,12.8,0000.0,0009.56,0005.76,0005.40
2023-03-12 21:29:00,,0824.2,5.00,0.00,22.4,21.0,00.0,31.1,24.2,12.8,0000.0,0009.02,0005.75,0005.36
2023-03-12 21:30:00,,0824.2,5.01,0.00,22.4,20.9,00.0,31.1,24.2,12.8,0000.0,0009.01,0005.71,0005.32
2023-03-12 21:31:00,,0824.3,5.00,0.00,22.4,20.9,00.0,31.1,24.2,12.9,0000.0,0008.99,0005.67,0005.28
2023-03-12 21:32:00,,0824.2,5.00,0.00,22.4,20.9,00.0,31.1,24.1,12.9,0000.0,0008.95,0005.65,0005.24
2023-03-12 21:33:00,,0824.5,5.00,0.00,22.4,20.9,00.0,31.1,24.2,12.8,0000.0,0008.74,0005.60,0005.22
2023-03-12 21:34:00,,0824.4,4.99,0.00,22.4,20.9,00.0,31.1,24.2,12.8,0000.0,0008.65,0005.54,0005.18
2023-03-12 21:35:00,,0824.2,4.98,0.00,22.4,20.9,00.0,31.1,24.2,12.9,0000.0,0008.47,0005.51,0005.16
2023-03-12 21:36:00,,0824.3,5.01,0.00,22.4,21.0,00.0,31.1,24.2,12.9,-001.3,0008.38,0005.49,0005.12
2023-03-12 21:37:00,,0824.3,4.99,0.00,22.3,20.9,00.0,31.1,24.1,12.9,-001.4,0008.49,0005.51,0005.12
2023-03-12 21:38:00,,0824.4,4.98,0.00,22.3,20.9,00.0,31.1,24.1,12.9,-001.5,0008.91,0005.50,0005.11
2023-03-12 21:39:00,,0824.3,5.02,0.00,22.3,20.9,00.0,31.1,24.1,13.1,-001.8,0009.23,0005.48,0005.12
2023-03-12 21:40:00,,0824.3,5.00,0.00,22.4,20.9,00.0,31.1,24.1,13.2,-001.4,0009.56,0005.47,0005.12
2023-03-12 21:41:00,,0824.3,5.01,0.00,22.3,21.0,00.0,31.1,24.1,13.3,-001.2,0009.52,0005.49,0005.15
2023-03-12 21:42:00,,0824.3,5.01,0.00,22.4,21.0,00.0,31.1,24.2,13.3,-000.8,0009.50,0005.50,0005.16
2023-03-12 21:43:00,,0824.2,5.00,0.00,22.4,21.0,00.0,31.1,24.2,13.3,-000.7,0009.50,0005.50,0005.18
2023-03-12 21:44:00,,0824.2,5.01,0.00,22.4,21.0,00.0,31.1,24.2,13.3,-000.2,0009.54,0005.51,0005.19
2023-03-12 21:45:00,,0824.3,5.01,0.00,22.4,21.0,00.0,31.1,24.2,13.2,-000.7,0009.85,0005.55,0005.20
2023-03-12 21:46:00,,0824.3,4.99,0.00,22.4,21.1,00.0,31.1,24.2,13.2,-001.3,0010.51,0005.56,0005.20
2023-03-12 21:47:00,,0824.3,4.96,0.00,22.4,21.1,00.0,31.1,24.2,13.1,-001.5,0011.17,0005.59,0005.21
2023-03-12 21:48:00,,0824.4,4.96,0.00,22.4,21.1,00.0,31.1,24.2,13.1,-000.8,0012.10,0005.61,0005.22
2023-03-12 21:49:00,,0824.4,5.01,0.00,22.4,21.2,00.0,31.1,24.3,13.1,0000.0,0012.23,0005.60,0005.24
2023-03-12 21:50:00,,0824.4,5.01,0.00,22.4,21.1,00.0,31.1,24.3,13.1,-000.9,0011.70,0005.59,0005.25
2023-03-12 21:51:00,,0824.5,4.98,0.00,22.4,21.2,00.0,31.1,24.2,13.2,-003.0,0011.30,0005.61,0005.26
2023-03-12 21:52:00,,0824.4,5.02,0.00,22.4,21.2,00.0,31.1,24.3,13.1,-002.5,0011.23,0005.63,0005.26
2023-03-12 21:53:00,,0824.4,4.98,0.00,22.4,21.2,00.0,31.1,24.3,13.2,-000.0,0011.26,0005.64,0005.26
2023-03-12 21:54:00,,0824.5,5.01,0.00,22.4,21.2,00.0,31.2,24.3,13.2,0000.0,0011.36,0005.66,0005.27
2023-03-12 21:55:00,,0824.4,4.99,0.00,22.4,21.3,00.0,31.2,24.3,13.4,-001.8,0011.52,0005.68,0005.28
2023-03-12 21:56:00,,0824.5,5.00,0.00,22.5,21.3,00.0,31.2,24.3,13.3,-002.4,0011.55,0005.65,0005.26
2023-03-12 21:57:00,,0824.4,5.01,0.00,22.5,21.3,00.0,31.2,24.3,13.4,0000.0,0011.18,0005.64,0005.26
2023-03-12 21:58:00,,0824.5,4.99,0.00,22.5,21.3,00.0,31.2,24.3,13.5,0000.0,0010.55,0005.65,0005.28
2023-03-12 21:59:00,,0824.5,5.01,0.00,22.5,21.3,00.0,31.2,24.3,13.4,0000.0,0010.02,0005.67,0005.30
